Погода в Брегенце

Австрия     47°30′02″N   9°44′32″E
темп.,
°C
ветер,
м/с
пор.,
м/с
влажн.,
%
обл.,
%
осадки,
мм/ч
давл.,
гПа
погр.,
м
21 июня, пн
пн2123:00+17ссз009676 5.4 1010109
02:00+15ю019689 5.6 101027
05:00+16юв119688 1.0 101049
08:00+19юз119013 1.3 1010154
11:00+22сз21586 0.2 1009917
14:00+23сз235683 0.2 10081074
17:00+22ссв336271 0.2 1008725
20:00+20св12887 1.4 100761
22 июня, вт
вт2223:00+16з239894 2.9 1011150
02:00+16зсз2299100 4.4 1012115
05:00+16всв1298100 1.9 1011124
08:00+17зсз119343 1.9 1011301
11:00+20зсз217458 0.1 1011741
14:00+22сз226837 1.3 1011958
17:00+20з238448 3.6 1012719
20:00+18зсз1192100 8.8 101467
23 июня, ср
ср2323:00+16зюз3897100 4.4 1016673
02:00+14ю2393100 5.6 1019112
05:00+14ююв1192100 0.1 101738
08:00+15ссв119082 0.1 1018263
11:00+20ссз226138 0.0 1017987
14:00+24с344999 0.0 10151638
17:00+20ссв367741 0.6 1015670
20:00+17ссв249389 2.3 1016345
24 июня, чт
чт2423:00+15з1298100 3.6 1019113
02:00+15юв119795 3.7 101850
05:00+14сз119899 0.4 1018105
08:00+15зсз119795 0.6 1018152
11:00+18з008018 0.2 1017501
14:00+21сз226199 0.6 10151028
17:00+17з238893 3.8 1017252
20:00+15з1295100 5.9 1019237
25 июня, пт
пт2523:00+13ююв2292100 0.1 101944
02:00+13юз1191100 0.1 101964
05:00+12юв119499 0.0 101929
08:00+15ююз128854 0.0 1019156
11:00+18зсз236216 0.1 10181021
14:00+20з1257100 0.3 10181021
17:00+18ююз238490 1.4 1018322
20:00+16зюз1186100 3.1 101821